Tracking 19854 objects as of 23-Sep-2019
HD Live streaming from Space Station
objects crossing your sky now

STARLINK OBJ AK

Track STARLINK OBJ AK now!
10-day predictions
STARLINK OBJ AK is classified as:


NORAD ID: 44268
Int'l Code: 2019-029AK
Perigee: 555.9 km
Apogee: 558.4 km
Inclination: 53.0 °
Period: 95.7 minutes
Semi major axis: 6928 km
RCS: Unknown
Launch date: May 24, 2019
Source: United States (US)
Launch site: AIR FORCE EASTERN TEST RANGE (AFETR)
aabbcc
Your satellite tracking list
Your tracking list is empty




NASA's NSSDC Master Catalog

Two Line Element Set (TLE):
1 44268U 19029AK  19265.71201303 -.00000089  00000-0  13079-4 0  9997
2 44268  52.9994 345.9188 0001748 102.2732 257.8452 15.05486923 18431
Source of the keplerian elements: AFSPC